Date,TemperatureHighF,TemperatureAvgF,TemperatureLowF,DewpointHighF,DewpointAvgF,DewpointLowF,HumidityHigh,HumidityAvg,HumidityLow,PressureMaxIn,PressureMinIn,WindSpeedMaxMPH,WindSpeedAvgMPH,GustSpeedMaxMPH,PrecipitationSumIn
2013-1-1,49.4,41.5,35.1,43.9,38.4,32.3,97,89,71,30.31,30.18,8,2,10,0.01
2013-1-2,52.4,42.3,34.0,44.2,35.5,28.3,90,77,62,30.19,30.06,7,2,10,0.00
2013-1-3,54.3,46.5,38.4,47.1,40.7,31.5,97,80,65,30.27,30.01,19,8,29,0.16
2013-1-4,50.5,46.2,42.1,47.6,44.3,40.8,96,93,85,30.29,30.12,8,2,12,0.01
2013-1-5,50.3,45.5,41.3,46.4,43.4,40.2,97,92,82,30.18,30.08,12,4,19,0.10
2013-1-6,47.9,44.6,40.4,46.2,42.8,39.6,98,93,87,30.23,30.14,12,4,19,0.07
2013-1-7,48.8,47.8,45.1,48.3,46.8,42.6,99,96,91,30.27,30.11,16,9,24,0.09
2013-1-8,50.5,48.4,47.4,48.7,47.2,45.6,98,96,91,30.26,29.99,17,11,26,0.01
2013-1-9,48.9,44.4,37.1,47.1,40.5,33.0,96,86,73,30.04,29.84,20,10,29,0.52
2013-1-10,45.4,40.4,34.5,40.4,36.3,32.8,97,86,71,30.20,30.02,23,9,28,0.24
2013-1-11,44.7,39.7,33.7,41.0,36.1,31.9,94,87,71,30.29,30.16,17,3,22,0.08
2013-1-12,33.9,32.7,30.6,32.4,30.7,27.7,94,92,87,30.36,30.25,8,4,13,0.00
2013-1-13,40.9,34.6,29.2,32.2,29.2,26.6,90,81,69,30.42,30.34,8,5,13,0.00
2013-1-14,45.1,37.8,32.7,37.0,32.1,28.2,89,80,70,30.51,30.48,12,5,16,0.00
2013-1-15,33.6,33.1,32.2,30.7,30.2,29.3,89,89,89,30.52,30.51,8,5,9,0.00
2013-1-19,39.8,36.7,32.5,39.5,36.4,32.3,99,99,99,30.28,30.21,9,2,13,0.01
2013-1-20,46.1,36.5,28.6,42.3,35.3,28.4,100,96,86,30.25,30.15,7,2,13,0.01
2013-1-21,54.6,41.7,31.8,42.6,35.6,29.7,98,80,48,30.18,30.05,6,2,8,0.00
2013-1-22,58.2,47.0,39.5,45.2,37.8,30.5,87,71,38,30.06,29.88,11,4,20,0.00
2013-1-23,49.0,44.3,38.6,46.7,42.0,37.8,98,92,75,30.16,29.83,14,3,18,0.76
2013-1-24,49.9,43.4,35.6,48.4,42.4,35.1,99,96,91,30.16,30.08,12,5,16,0.06
2013-1-25,48.9,46.5,42.4,48.2,45.7,41.8,98,97,89,30.14,30.01,15,9,24,0.22
2013-1-26,47.7,44.5,39.4,44.2,40.5,37.8,98,86,76,30.15,30.00,13,7,18,0.15
2013-1-27,45.8,41.4,37.1,44.0,39.9,36.1,97,94,88,30.22,30.13,13,5,19,0.58
2013-1-28,46.7,45.0,43.1,43.7,42.4,40.1,96,90,83,30.37,30.17,15,8,20,0.02
2013-1-29,46.7,43.7,39.8,45.0,42.4,39.0,98,95,89,30.54,30.37,11,4,20,0.09
2013-1-30,47.6,43.1,38.1,46.2,42.2,37.6,98,97,94,30.55,30.44,7,3,15,0.00
2013-1-31,51.5,44.4,39.6,46.6,42.4,38.8,98,93,77,30.44,30.30,12,5,16,0.02
2013-2-1,51.2,44.4,37.3,47.2,42.1,35.9,96,92,76,30.31,30.13,10,4,15,0.00
2013-2-2,49.6,44.6,38.7,46.5,42.2,36.3,96,91,78,30.34,30.18,11,3,14,0.00
2013-2-3,49.5,46.3,41.7,45.0,43.2,40.1,96,89,80,30.34,30.21,6,1,9,0.00
2013-2-4,47.9,43.1,37.2,45.4,41.1,36.4,98,93,86,30.22,30.00,17,6,24,0.01
2013-2-5,50.2,46.9,44.8,47.1,44.6,40.9,96,91,84,30.12,29.95,14,9,25,0.09
2013-2-6,49.8,45.6,38.4,45.5,42.7,36.0,96,90,75,30.13,29.89,18,10,30,0.57
2013-2-7,41.9,38.5,35.5,40.8,37.2,34.5,97,95,91,30.10,29.98,13,3,17,0.52
2013-2-8,46.4,40.1,33.8,41.2,37.0,32.8,97,89,79,30.27,30.10,17,7,25,0.01
2013-2-9,47.7,41.0,35.9,41.9,37.8,33.5,95,88,65,30.30,30.25,13,4,16,0.00
2013-2-10,48.9,44.1,39.8,41.8,39.9,37.3,97,86,72,30.30,30.25,11,5,15,0.00
2013-2-11,49.4,44.2,41.3,43.6,39.4,35.9,96,84,66,30.42,30.28,13,7,18,0.00
2013-2-12,48.3,45.6,43.4,47.8,44.9,42.4,98,97,95,30.52,30.42,9,4,11,0.04
2013-2-13,48.7,45.7,43.2,47.1,44.6,42.1,98,96,92,30.51,30.45,10,4,12,0.00
2013-2-14,49.7,45.3,39.2,46.0,43.7,38.4,98,94,87,30.50,30.36,19,6,24,0.01
2013-2-15,54.2,47.2,43.4,49.0,44.6,41.8,96,91,74,30.36,30.20,7,3,10,0.00
2013-2-16,47.7,45.2,42.5,45.1,43.3,40.3,97,93,86,30.33,30.25,13,5,18,0.01
2013-2-17,45.2,41.7,37.5,40.8,38.1,34.6,95,87,77,30.30,30.06,16,6,21,0.02
2013-2-18,46.4,40.1,34.9,41.2,37.5,33.1,94,90,81,30.07,29.72,13,5,19,0.06
2013-2-19,44.6,39.8,35.4,40.5,37.4,34.4,97,91,81,30.03,29.63,13,5,19,0.61
2013-2-20,46.2,40.8,34.6,41.9,38.3,33.3,96,91,76,30.16,30.02,12,4,16,0.06
2013-2-21,46.8,43.2,37.6,42.8,39.1,35.1,94,86,76,30.29,30.16,11,5,17,0.02
2013-2-22,46.4,44.5,42.2,44.7,42.1,36.9,97,91,77,30.26,30.03,20,12,34,0.44
2013-2-23,46.2,42.3,36.9,40.2,37.3,34.3,92,83,72,30.46,30.21,18,7,23,0.08
2013-2-24,47.4,41.1,32.9,42.5,36.8,31.3,94,85,68,30.45,30.17,13,5,20,0.00
2013-2-25,47.1,43.7,35.0,44.2,38.9,32.9,96,83,71,30.41,30.16,16,6,23,0.26
2013-2-26,47.4,39.5,32.5,39.5,35.5,31.0,95,86,65,30.40,30.26,6,3,22,0.01
2013-2-27,49.9,45.8,40.4,48.0,42.5,37.1,97,88,69,30.30,30.22,14,6,24,0.13
2013-2-28,49.5,48.8,48.4,49.0,48.2,47.6,99,98,95,30.49,30.23,16,10,26,0.25
2013-3-1,51.7,47.9,45.0,51.2,47.4,44.5,99,98,94,30.49,30.32,8,3,26,0.00
2013-3-2,48.4,46.6,44.0,47.9,46.1,42.9,99,98,96,30.32,30.22,17,4,20,0.01
2013-3-3,46.4,42.8,38.0,43.2,38.6,33.3,96,85,70,30.27,30.14,22,10,29,0.00
2013-3-4,49.2,42.0,34.1,44.1,37.7,31.5,90,85,73,30.14,29.87,18,7,26,0.00
2013-3-5,49.2,42.8,40.2,43.2,40.1,36.3,96,91,66,29.87,29.59,23,4,25,1.10
2013-3-6,46.9,42.3,39.4,44.2,40.4,37.9,96,93,86,29.96,29.55,15,7,22,0.41
2013-3-7,47.9,41.8,35.1,42.7,38.7,33.8,96,89,76,30.01,29.96,8,3,11,0.01
2013-3-8,46.4,40.6,32.3,42.9,38.4,31.3,97,92,87,30.22,29.99,16,7,21,0.01
2013-3-9,48.6,43.9,39.4,44.8,41.3,37.4,95,91,83,30.49,30.22,16,6,18,0.00
2013-3-10,49.1,43.4,36.5,46.5,41.6,35.5,98,93,84,30.47,30.40,11,5,13,0.00
2013-3-11,48.0,46.3,44.7,47.5,45.8,44.2,99,98,97,30.42,30.24,10,5,13,0.01
2013-3-12,49.2,45.6,43.2,48.9,45.2,42.9,100,99,97,30.25,30.20,7,2,12,0.01
2013-3-13,46.2,44.9,43.1,45.9,44.5,42.8,99,99,98,30.24,30.13,5,2,7,0.00
2013-3-14,53.2,47.3,43.1,47.8,45.1,42.8,99,92,81,30.23,30.08,14,7,21,0.00
2013-3-15,50.7,48.1,45.1,49.6,46.8,44.6,98,95,91,30.25,30.21,6,2,9,0.00
2013-3-16,48.3,46.1,42.9,46.8,44.9,40.3,98,96,88,30.25,30.15,16,6,22,0.15
2013-3-17,46.0,42.9,37.2,40.7,36.8,32.8,92,79,69,30.33,30.25,13,6,22,0.00
2013-3-18,48.5,42.1,34.4,43.6,38.3,31.8,94,86,67,30.28,30.06,20,7,25,0.00
2013-3-19,52.7,47.8,43.7,48.4,43.5,39.3,96,85,61,30.06,29.67,22,9,35,0.65
2013-3-20,50.6,46.7,42.5,48.4,43.2,35.6,98,88,74,30.25,29.64,26,14,44,0.32
2013-3-21,46.8,42.5,37.2,40.6,36.7,33.8,92,80,69,30.38,30.25,13,5,38,0.04
2013-3-22,44.8,41.0,35.6,38.7,35.7,32.2,93,82,71,30.39,30.34,15,6,22,0.06
2013-3-23,45.5,39.4,31.7,38.0,34.4,29.9,94,83,68,30.37,30.21,16,7,20,0.00
2013-3-24,47.3,42.2,36.7,40.6,37.5,34.0,91,83,75,30.22,30.05,10,4,13,0.00
2013-3-25,48.1,43.4,36.1,43.9,40.5,33.7,93,89,85,30.06,29.97,7,3,9,0.01
2013-3-26,50.8,46.7,43.4,46.8,44.0,41.5,94,90,83,30.00,29.91,6,3,8,0.00
2013-3-27,52.5,48.5,45.6,50.2,46.8,42.9,97,94,89,29.97,29.89,11,5,15,0.05
2013-3-28,52.5,49.0,47.3,49.4,47.6,46.2,97,95,89,30.12,29.97,5,2,9,0.01
2013-3-29,56.7,50.1,46.9,53.2,48.4,45.5,97,94,87,30.15,30.09,13,5,17,0.01
2013-3-30,61.2,51.9,45.7,55.2,48.7,44.6,97,89,73,30.09,29.97,14,5,18,0.01
2013-3-31,51.8,50.1,48.6,49.8,48.8,48.0,98,95,91,30.05,29.97,8,3,11,0.01
2013-4-1,50.7,48.5,46.6,50.1,47.9,45.9,99,98,96,30.20,30.04,8,4,10,0.00
2013-4-2,48.4,46.7,45.4,47.7,46.2,44.9,99,98,96,30.23,30.16,9,4,12,0.01
2013-4-3,47.9,45.9,43.7,47.4,45.4,43.4,99,98,97,30.16,29.90,6,2,9,0.02
2013-4-4,53.6,50.1,47.5,53.1,49.7,47.0,99,98,96,29.93,29.70,20,10,30,1.03
2013-4-5,51.6,50.2,49.1,49.9,49.2,48.4,98,96,93,30.01,29.88,21,14,30,0.48
2013-4-6,51.2,49.8,49.0,49.8,48.7,47.8,98,96,91,30.06,29.75,24,12,39,0.27
2013-4-7,50.4,46.3,41.3,49.6,43.9,39.4,97,91,82,30.04,29.77,26,12,47,0.54
2013-4-8,50.1,45.5,40.4,46.0,41.8,37.9,96,87,80,30.30,30.04,15,6,47,0.14
2013-4-9,51.6,46.0,39.9,47.6,43.3,37.6,94,90,84,30.33,30.27,10,4,19,0.00
2013-4-10,50.8,47.1,42.1,49.7,45.9,40.2,99,96,92,30.35,30.26,12,5,17,0.02
2013-4-11,48.9,45.3,39.7,44.8,42.4,38.3,96,90,80,30.36,30.15,21,9,27,0.01
2013-4-12,50.4,44.9,38.4,46.1,42.6,37.4,97,92,82,30.15,29.98,15,5,19,0.09
2013-4-13,47.7,45.2,38.7,42.6,39.1,33.8,90,79,69,30.17,30.05,12,7,19,0.02
2013-4-14,46.8,42.0,35.7,41.6,38.4,32.3,92,87,81,30.15,29.98,10,4,19,0.02
2013-4-15,46.7,42.3,38.1,41.2,39.0,36.5,95,88,78,30.21,29.98,13,5,17,0.43
2013-4-16,49.9,45.0,39.5,44.4,41.3,37.0,96,87,79,30.41,30.21,13,5,15,0.03
2013-4-17,49.7,46.6,43.4,45.1,42.5,40.3,90,86,78,30.50,30.41,14,5,17,0.00
2013-4-18,50.2,47.3,44.5,46.6,44.5,42.3,96,90,83,30.48,30.38,13,6,17,0.00
2013-4-19,49.7,47.8,45.9,49.4,47.2,45.1,99,98,96,30.39,30.30,12,4,17,0.06
2013-4-20,49.4,47.4,46.0,47.2,45.8,43.1,99,94,88,30.37,30.28,15,8,18,0.04
2013-4-21,50.4,47.4,44.5,47.0,44.2,40.9,94,89,83,30.31,30.24,10,6,13,0.00
2013-4-22,53.1,48.6,44.8,46.6,44.8,42.0,94,87,76,30.28,30.19,23,10,28,0.00
2013-4-23,50.6,48.0,44.1,44.6,41.1,35.0,91,77,61,30.23,30.11,23,11,29,0.00
2013-4-24,67.0,50.1,40.4,46.2,41.9,34.1,95,76,32,30.15,29.92,21,7,25,0.00
2013-4-25,50.1,46.5,42.6,47.6,44.0,39.1,97,91,80,30.16,29.96,16,6,19,0.00
2013-4-26,46.7,44.9,43.6,46.1,44.3,43.1,99,98,96,30.30,30.16,9,4,11,0.00
2013-4-27,49.1,45.5,41.9,46.9,44.2,41.6,99,96,90,30.33,30.25,11,5,13,0.00
2013-4-28,50.8,48.5,46.7,49.1,46.7,44.6,96,94,90,30.30,30.19,11,5,14,0.00
2013-4-29,49.4,47.9,44.0,48.3,45.1,38.3,99,90,80,30.22,30.16,18,7,22,0.04
2013-4-30,49.3,44.6,39.3,41.9,38.5,33.7,84,79,57,30.37,30.22,22,11,28,0.00
2013-5-1,50.5,45.8,38.4,44.3,40.6,34.9,91,82,63,30.39,30.31,23,10,30,0.00
2013-5-2,54.6,49.4,44.9,46.2,43.8,40.6,91,81,67,30.32,30.23,20,10,27,0.00
2013-5-3,50.4,47.6,43.3,47.0,44.6,41.1,94,89,85,30.27,30.05,23,10,27,0.00
2013-5-4,65.8,52.4,43.9,49.9,45.1,38.1,95,77,37,30.06,29.70,19,7,26,0.00
2013-5-5,76.6,59.3,47.4,48.7,43.0,35.6,90,61,29,29.83,29.62,19,10,26,0.00
2013-5-6,55.1,51.7,47.6,50.9,48.2,44.6,96,88,79,29.96,29.83,10,4,15,0.00
2013-5-7,51.7,49.7,47.9,49.7,48.3,47.1,98,95,91,30.07,29.95,12,6,16,0.00
2013-5-8,54.1,50.9,49.3,50.1,48.0,46.5,93,90,85,30.18,30.06,7,4,10,0.00
2013-5-9,50.2,48.9,47.7,48.3,47.1,46.2,96,94,91,30.22,30.13,16,7,21,0.00
2013-5-10,52.1,49.1,46.9,49.3,47.2,45.8,96,93,88,30.25,30.21,7,2,10,0.00
2013-5-11,57.4,52.1,47.1,53.3,49.5,45.5,96,91,81,30.25,30.08,5,2,8,0.00
2013-5-12,58.2,54.3,51.1,54.6,51.7,49.2,97,91,84,30.16,30.08,10,6,16,0.00
2013-5-13,55.3,51.9,48.0,53.2,50.9,46.9,99,97,91,30.24,30.08,15,6,18,0.00
2013-5-14,53.6,50.2,46.0,49.5,47.9,44.8,98,92,84,30.22,30.14,15,7,18,0.01
2013-5-15,57.4,50.8,45.6,50.1,47.0,43.7,94,87,71,30.14,30.01,12,4,18,0.00
2013-5-16,54.9,51.7,49.6,52.9,50.4,48.8,97,95,91,30.02,29.97,11,5,15,0.11
2013-5-17,56.4,52.0,48.4,52.2,49.4,45.6,97,91,81,30.13,30.00,9,3,13,0.03
2013-5-18,53.8,50.8,47.7,50.3,48.2,45.8,96,91,83,30.34,30.11,13,7,19,0.02
2013-5-19,54.2,51.7,49.6,49.9,48.2,45.8,96,88,78,30.42,30.31,22,12,27,0.01
2013-5-20,52.5,48.8,45.3,49.4,46.5,43.8,95,92,88,30.32,30.00,16,7,19,0.00
2013-5-21,50.3,47.4,43.7,47.4,43.7,37.6,96,87,70,30.11,29.86,27,10,34,0.25
2013-5-22,47.4,44.5,41.8,45.2,42.4,38.7,96,92,82,30.10,30.05,14,7,21,1.13
2013-5-23,52.5,47.5,42.7,49.0,45.5,41.4,96,93,85,30.09,30.02,10,6,16,0.19
2013-5-24,53.6,50.2,47.2,48.8,45.9,42.8,95,85,79,30.13,30.06,9,4,16,0.00
2013-5-25,53.9,49.1,40.6,49.9,46.4,39.1,97,91,84,30.10,29.96,11,5,16,0.15
2013-5-26,55.1,51.6,48.9,51.6,49.7,48.1,98,93,87,30.09,29.97,13,9,21,0.02
2013-5-27,55.4,52.3,50.4,53.5,51.1,48.9,98,96,92,29.99,29.78,20,12,35,0.36
2013-5-28,56.2,52.4,49.0,53.9,50.8,48.5,98,94,87,29.99,29.74,19,8,28,0.12
2013-5-29,54.3,52.2,50.5,52.1,50.2,48.0,98,93,88,30.11,29.73,20,8,29,0.05
2013-5-30,57.6,52.2,47.6,52.1,48.9,46.2,96,89,79,30.25,30.10,7,3,29,0.00
2013-5-31,54.5,50.7,44.2,50.7,47.9,42.8,95,90,84,30.29,30.23,18,9,23,0.01
2013-6-1,56.1,52.0,47.7,53.3,50.2,46.6,97,94,88,30.25,30.08,10,5,12,0.00
2013-6-2,54.0,51.9,50.5,52.0,50.4,48.4,99,95,91,30.08,30.04,23,12,30,0.01
2013-6-3,52.6,50.4,48.2,49.8,48.1,46.6,95,92,89,30.07,30.00,23,12,29,0.00
2013-6-4,51.8,49.4,46.1,50.1,47.9,45.0,97,95,92,30.03,29.99,20,10,24,0.00
2013-6-5,52.2,50.1,47.9,51.7,49.5,47.6,99,98,96,30.09,30.02,19,9,24,0.00
2013-6-6,52.2,49.8,47.4,50.2,48.7,46.9,99,96,92,30.10,30.04,18,9,25,0.01
2013-6-7,53.7,50.8,48.0,52.0,49.5,46.6,99,95,86,30.13,30.08,18,8,22,0.00
2013-6-8,52.4,49.9,47.3,50.8,48.0,46.5,99,93,88,30.13,30.05,23,11,30,0.00
2013-6-9,51.7,49.6,47.5,49.3,47.1,45.6,95,91,86,30.06,29.99,24,12,30,0.00
2013-6-10,52.3,48.8,46.7,49.5,46.1,43.9,94,90,86,30.05,29.95,17,9,21,0.00
2013-6-11,52.9,50.0,47.1,49.9,48.0,45.3,95,92,88,30.18,30.05,10,3,14,0.00
2013-6-12,53.3,49.2,44.4,50.6,47.4,43.3,97,94,89,30.23,30.15,9,3,11,0.00
2013-6-13,56.4,51.1,47.4,52.8,49.3,45.6,97,94,87,30.31,30.22,7,3,10,0.03
2013-6-14,53.2,49.8,43.7,50.8,48.1,42.6,97,94,90,30.30,29.98,17,8,20,0.01
2013-6-15,55.1,52.1,49.2,53.3,50.6,46.7,98,95,88,30.07,29.94,6,2,8,0.00
2013-6-16,56.0,51.1,45.3,52.2,48.7,43.4,96,92,85,30.15,30.06,10,4,16,0.00
2013-6-17,57.1,50.7,44.9,53.7,49.7,44.1,98,96,87,30.13,30.04,14,6,20,0.04
2013-6-18,57.9,53.0,47.1,54.3,51.0,46.5,98,93,86,30.05,29.99,15,7,20,0.28
2013-6-19,59.4,54.7,50.0,55.1,52.2,48.9,98,91,81,30.14,29.99,9,5,13,0.02
2013-6-20,58.7,54.8,51.0,54.4,51.7,48.6,93,89,82,30.14,30.08,10,4,13,0.00
2013-6-21,58.5,54.5,47.7,55.3,52.0,46.6,97,91,87,30.15,30.10,15,7,19,0.00
2013-6-22,59.2,54.5,48.9,55.0,52.4,48.1,98,93,83,30.10,29.88,8,5,12,0.01
2013-6-23,61.0,56.4,52.8,59.2,55.6,52.3,99,97,92,29.88,29.66,16,7,27,0.27
2013-6-24,59.7,54.6,51.7,54.7,53.0,51.2,99,94,81,29.75,29.67,18,10,26,0.10
2013-6-25,60.5,56.8,53.9,57.6,55.4,53.3,99,95,84,29.85,29.68,17,11,26,0.28
2013-6-26,62.6,58.7,55.7,59.5,57.3,55.1,98,95,89,30.00,29.84,13,7,26,0.06
2013-6-27,61.7,58.2,55.1,59.5,56.9,54.3,98,95,91,30.16,29.99,14,5,19,0.00
2013-6-28,65.5,59.9,53.5,62.2,58.4,52.9,99,95,88,30.14,30.08,5,2,7,0.01
2013-6-29,65.2,60.6,56.3,61.4,58.2,54.6,98,92,83,30.11,29.97,13,6,18,0.00
2013-6-30,63.4,59.2,56.4,61.6,58.3,55.3,99,97,94,29.99,29.93,11,4,13,0.01
2013-7-1,60.4,57.8,56.0,59.3,57.0,55.1,99,97,95,30.06,29.94,16,8,19,0.00
2013-7-2,59.3,56.4,54.3,57.0,55.4,53.0,100,96,91,30.10,30.03,21,9,24,0.00
2013-7-3,58.3,55.5,53.2,55.7,53.6,51.8,97,93,89,30.12,30.08,20,9,25,0.00
2013-7-4,57.2,54.0,51.7,53.0,51.5,49.3,95,91,84,30.12,30.05,17,9,21,0.00
2013-7-5,55.2,53.0,50.8,52.3,50.5,48.3,94,91,85,30.06,29.95,19,10,23,0.00
2013-7-6,56.7,52.7,49.3,53.4,50.2,47.5,94,91,88,29.97,29.90,18,8,22,0.00
2013-7-7,55.6,52.7,51.2,53.0,50.8,49.3,96,93,88,30.00,29.92,15,8,18,0.00
2013-7-8,56.4,53.4,50.2,52.6,50.8,48.3,95,91,87,30.04,29.99,18,10,22,0.00
2013-7-9,53.6,51.1,48.4,52.9,50.6,47.9,99,98,95,30.10,30.02,18,9,24,0.00
2013-7-10,53.8,51.8,49.5,52.2,50.1,47.6,99,94,88,30.10,30.00,20,10,25,0.00
2013-7-11,53.7,50.6,47.5,49.8,48.1,46.0,95,91,86,30.05,30.00,17,7,20,0.00
2013-7-12,53.3,50.4,47.2,50.9,48.7,46.3,97,94,91,30.09,30.02,12,6,15,0.00
2013-7-13,52.8,50.2,45.7,50.1,48.1,44.8,98,93,86,30.09,30.03,23,10,28,0.01
2013-7-14,52.1,49.5,46.5,50.4,48.4,46.0,98,96,94,30.07,30.00,21,10,25,0.00
2013-7-15,53.0,50.0,47.2,51.0,49.0,46.4,98,96,92,30.01,29.83,21,10,26,0.00
2013-7-16,51.6,49.1,47.2,51.3,48.4,46.7,99,97,96,30.06,29.82,10,5,17,0.00
2013-7-17,54.8,52.0,49.5,52.2,50.3,47.8,97,94,90,30.18,30.06,9,4,12,0.00
2013-7-18,54.1,51.2,48.1,51.1,49.4,46.4,98,94,89,30.18,30.13,17,8,21,0.00
2013-7-19,54.1,51.7,49.8,51.2,49.8,48.3,96,94,89,30.15,30.08,19,10,25,0.00
2013-7-20,54.9,52.1,49.4,51.8,50.3,47.8,97,93,88,30.10,29.98,22,10,26,0.00
2013-7-21,53.9,50.7,47.4,52.1,49.7,46.8,99,97,92,29.99,29.90,21,11,27,0.00
2013-7-22,52.7,50.4,47.8,50.7,49.5,47.3,100,97,93,30.00,29.95,20,11,26,0.00
2013-7-23,50.4,47.7,45.2,49.9,47.4,44.9,100,99,98,30.07,29.98,18,9,23,0.00
2013-7-24,49.9,48.2,46.1,49.1,47.7,45.8,99,98,96,30.06,30.01,20,11,25,0.00
2013-7-25,52.1,48.5,45.9,49.9,47.6,45.6,100,97,92,30.05,30.01,21,11,26,0.00
2013-7-26,53.2,49.6,46.7,50.5,48.3,45.9,99,95,91,30.16,30.05,21,11,27,0.00
2013-7-27,53.6,50.7,48.2,51.2,49.3,47.4,98,95,91,30.16,30.05,21,11,25,0.00
2013-7-28,56.2,51.2,49.0,52.7,49.5,46.8,97,94,86,30.07,29.97,15,8,19,0.00
2013-7-29,53.7,49.6,45.9,51.8,48.7,45.6,99,97,93,30.08,29.96,13,6,15,0.01
2013-7-30,54.7,52.3,50.0,53.2,51.2,48.6,98,96,92,30.15,30.08,7,3,9,0.00
2013-7-31,56.3,53.4,50.7,55.5,52.6,49.9,98,97,96,30.15,30.10,4,1,9,0.00
2013-8-1,57.9,54.7,51.7,56.4,53.9,51.2,100,97,93,30.16,30.09,6,2,9,0.01
2013-8-2,55.7,53.3,49.9,54.8,52.4,49.4,99,97,93,30.14,30.07,15,6,19,0.00
2013-8-3,53.6,50.5,47.7,52.2,50.0,47.4,100,98,95,30.08,29.99,15,8,19,0.01
2013-8-4,53.7,51.1,48.9,53.4,50.8,48.6,100,99,98,30.02,29.98,17,8,21,0.00
2013-8-5,52.5,50.3,48.8,52.2,49.9,48.3,100,98,95,30.03,29.96,18,8,23,0.00
2013-8-6,52.6,49.4,47.3,51.5,48.9,47.0,99,98,96,30.04,29.96,7,3,11,0.00
2013-8-7,55.4,50.1,47.4,54.6,49.6,47.1,100,99,95,30.10,30.01,9,4,11,0.05
2013-8-8,53.3,51.9,50.8,53.3,51.7,50.5,100,99,98,30.10,29.97,10,4,13,0.01
2013-8-9,55.1,51.6,49.9,55.1,51.5,49.8,100,100,98,30.01,29.91,14,5,18,0.06
2013-8-10,55.5,52.9,50.4,55.2,52.8,50.1,100,100,98,30.07,29.98,5,2,10,0.00
2013-8-11,56.9,54.3,51.5,55.4,53.3,50.7,99,96,94,30.07,30.03,9,3,11,0.00
2013-8-12,55.1,52.6,48.1,54.7,52.1,47.6,100,98,96,30.08,30.04,10,4,13,0.01
2013-8-13,58.6,53.2,47.9,55.8,51.9,47.4,99,95,90,30.08,29.97,11,3,12,0.01
2013-8-14,64.4,56.8,50.4,60.7,54.5,49.6,98,92,77,30.01,29.93,13,5,19,0.00
2013-8-15,62.9,58.9,54.2,61.7,58.0,53.6,99,97,92,29.99,29.92,6,3,9,0.00
2013-8-16,62.1,56.4,53.4,60.1,55.5,53.1,100,97,92,30.06,29.96,4,2,9,0.00
2013-8-17,63.5,57.0,53.9,60.6,56.0,52.8,100,96,88,30.10,30.04,10,4,13,0.00
2013-8-18,59.9,55.8,52.3,57.5,55.0,52.0,100,97,91,30.10,30.03,17,6,21,0.01
2013-8-19,58.9,55.0,52.4,56.6,54.4,52.3,100,98,87,30.10,30.03,18,9,22,0.01
2013-8-20,55.7,53.5,50.3,54.3,51.4,48.7,98,93,88,30.08,29.93,23,10,31,0.00
2013-8-21,55.2,50.8,47.9,53.5,49.5,46.8,98,95,92,29.95,29.88,15,6,20,0.00
2013-8-22,55.1,51.5,49.0,54.5,51.0,48.3,99,98,96,29.97,29.92,8,3,11,0.00
2013-8-23,59.6,54.3,51.1,57.1,53.3,50.8,100,97,90,29.97,29.91,7,2,9,0.00
2013-8-24,58.2,53.2,50.4,57.4,52.5,49.8,99,97,93,29.92,29.88,10,3,12,0.01
2013-8-25,55.4,51.6,48.3,55.4,51.5,48.0,100,99,98,29.95,29.89,5,2,6,0.03
2013-8-26,64.6,54.6,45.7,58.1,51.8,45.7,100,91,68,29.95,29.92,16,6,25,0.01
2013-8-27,66.3,59.3,56.4,59.9,56.3,52.8,94,90,78,29.94,29.83,13,5,18,0.00
2013-8-28,63.4,59.4,55.3,60.6,57.2,53.9,97,92,85,29.89,29.81,12,5,17,0.01
2013-8-29,65.4,60.5,57.2,62.7,59.6,56.9,100,97,90,30.08,29.81,16,8,28,0.30
2013-8-30,61.1,58.5,54.7,60.9,58.2,54.4,100,99,96,30.11,30.03,7,3,19,0.02
2013-8-31,57.2,54.6,51.9,56.6,54.4,51.8,100,100,97,30.03,29.91,10,5,13,0.01
2013-9-1,65.5,58.7,51.5,61.8,56.7,51.4,100,94,76,29.93,29.83,14,6,18,0.01
2013-9-2,63.9,60.0,56.0,60.8,58.5,53.1,100,95,88,29.93,29.86,12,6,17,0.06
2013-9-3,64.3,59.8,54.0,60.2,56.8,51.5,96,90,82,30.01,29.92,12,4,19,0.00
2013-9-4,62.5,58.6,56.3,59.4,57.2,55.0,99,95,88,30.06,29.98,7,3,10,0.00
2013-9-5,61.7,58.3,56.0,60.0,57.5,55.7,100,97,92,30.14,30.00,6,2,8,0.22
2013-9-6,62.7,59.9,57.4,61.8,58.8,56.8,99,96,90,30.17,30.06,13,4,16,0.04
2013-9-7,60.7,58.2,54.1,58.8,56.9,53.2,97,95,91,30.06,29.93,16,8,21,0.00
2013-9-8,60.9,56.7,54.5,59.5,56.2,54.1,100,98,93,30.01,29.93,19,8,24,0.00
2013-9-9,55.9,53.8,51.5,55.3,53.4,51.0,100,99,97,29.97,29.86,21,8,27,0.00
2013-9-10,57.2,51.9,50.2,55.3,51.4,49.6,100,98,92,29.86,29.72,18,6,22,0.01
2013-9-11,59.4,56.1,51.3,57.3,55.0,51.0,100,96,90,29.99,29.84,12,5,17,0.00
2013-9-12,60.1,56.7,55.2,58.6,55.8,54.4,99,97,93,30.00,29.96,5,2,8,0.00
2013-9-13,58.0,55.9,54.3,57.2,55.2,53.7,99,98,95,29.99,29.85,10,4,12,0.01
2013-9-14,57.0,54.2,52.7,56.2,53.9,52.5,100,99,96,29.86,29.79,7,3,9,0.01
2013-9-15,57.9,55.5,53.7,55.9,54.9,53.7,100,98,91,29.92,29.76,10,4,15,0.01
2013-9-16,60.5,57.2,54.3,58.6,55.2,53.1,99,93,86,29.98,29.87,7,2,9,0.00
2013-9-17,60.7,56.2,52.9,58.0,55.0,52.6,100,96,86,30.05,29.86,15,4,19,0.09
2013-9-18,58.2,54.3,50.8,55.7,53.2,50.1,99,96,90,30.08,29.95,12,4,14,0.01
2013-9-19,61.5,53.9,47.0,57.8,52.2,46.3,100,94,80,29.95,29.79,8,3,11,0.01
2013-9-20,59.3,54.7,50.2,58.4,53.3,48.2,99,95,85,29.79,29.66,17,3,25,0.31
2013-9-21,60.4,55.9,52.4,57.1,54.5,52.1,100,95,88,29.85,29.66,11,4,15,0.74
2013-9-22,59.8,56.5,54.1,56.1,54.7,52.7,97,94,82,29.92,29.75,22,11,38,0.19
2013-9-23,61.9,57.7,55.1,57.7,55.7,54.1,98,93,83,30.02,29.92,8,4,12,0.00
2013-9-24,58.2,54.9,51.1,55.3,53.0,47.6,97,93,85,30.00,29.92,15,6,21,0.13
2013-9-25,56.2,51.5,46.7,51.7,48.3,44.7,97,89,79,30.06,29.91,9,4,11,0.28
2013-9-26,58.7,51.4,44.1,55.5,49.3,42.9,98,92,87,30.19,30.05,8,2,9,0.00
2013-9-27,57.3,52.6,45.6,56.1,50.9,44.6,98,94,87,30.19,30.01,10,5,17,0.05
2013-9-28,59.7,56.5,52.0,57.6,55.7,51.3,99,97,91,30.01,29.63,25,16,39,0.91
2013-9-29,58.3,56.0,53.0,58.0,55.1,51.6,100,97,92,29.79,29.57,28,16,43,2.33
2013-9-30,58.4,55.5,52.8,55.2,52.8,49.3,96,90,86,30.04,29.77,11,8,18,0.07
2013-10-1,57.7,52.9,45.7,53.3,50.0,43.8,95,90,82,30.19,30.02,12,4,18,0.12
2013-10-2,57.1,49.7,42.0,51.6,46.7,40.7,95,90,78,30.21,30.12,10,4,14,0.02
2013-10-3,56.2,49.4,42.2,50.5,46.5,41.3,98,90,77,30.35,30.20,17,6,20,0.02
2013-10-4,59.3,51.3,43.3,53.0,47.5,41.6,94,87,65,30.35,30.24,17,6,21,0.00
2013-10-5,65.8,55.9,47.5,54.2,45.5,38.1,90,70,41,30.24,30.08,9,3,11,0.00
2013-10-6,63.6,55.1,46.7,53.7,46.8,36.5,92,75,39,30.08,30.00,16,5,19,0.00
2013-10-7,58.2,54.3,48.5,53.5,51.6,46.6,98,91,80,30.18,30.03,8,3,12,0.09
2013-10-8,54.4,50.2,46.4,52.0,48.4,45.0,96,94,88,30.18,30.01,12,2,18,0.08
2013-10-9,54.3,48.6,41.1,50.2,46.3,40.3,97,92,84,30.02,29.96,17,6,21,0.03
2013-10-10,56.7,51.3,45.6,52.5,48.3,43.6,94,90,75,30.09,29.95,17,5,20,0.00
2013-10-11,53.9,50.8,47.8,49.1,47.1,45.2,93,87,79,30.13,30.09,10,4,14,0.00
2013-10-12,53.9,49.4,46.2,50.7,47.2,44.0,96,92,88,30.12,30.06,11,3,14,0.11
2013-10-13,52.4,48.2,42.8,49.6,46.3,41.6,97,93,88,30.23,30.12,17,6,21,0.01
2013-10-24,49.2,48.3,47.0,49.2,48.3,47.0,100,100,100,30.11,30.01,5,2,8,0.01
2013-10-25,50.5,48.6,48.0,50.5,48.6,47.9,100,100,99,30.20,30.11,7,2,9,0.00
2013-10-26,49.4,48.2,46.2,49.4,47.5,46.2,100,98,93,30.20,30.16,18,8,24,0.01
2013-10-27,50.4,48.5,43.9,50.0,47.0,43.1,99,95,90,30.16,29.83,10,4,16,0.02
2013-10-28,51.0,46.3,41.4,47.8,43.9,40.5,100,92,75,29.84,29.74,12,4,15,0.02
2013-10-29,48.9,43.2,38.1,45.3,40.5,36.0,96,90,82,30.06,29.84,6,2,7,0.00
2013-10-30,50.9,42.4,33.9,47.7,40.3,32.6,98,92,85,30.19,30.05,5,1,7,0.00
2013-10-31,57.0,49.5,45.1,52.9,46.5,41.4,99,90,61,30.23,30.18,5,1,7,0.00
2013-11-1,54.7,49.2,45.6,53.2,48.8,45.3,100,98,92,30.21,29.96,13,4,22,0.01
2013-11-2,52.4,49.5,46.2,50.1,47.6,45.6,100,93,85,30.19,29.88,16,6,24,0.25
2013-11-3,49.9,46.0,40.0,46.5,43.8,38.9,97,92,87,30.23,30.17,8,2,22,0.05
2013-11-4,48.9,44.8,37.5,48.4,43.9,36.7,98,97,89,30.20,30.15,7,3,12,0.08
2013-11-5,52.6,50.7,48.8,51.4,50.0,48.3,99,97,95,30.25,30.12,13,8,20,0.06
2013-11-6,57.2,51.6,50.1,56.8,51.5,49.9,100,99,98,30.26,30.12,5,2,14,0.01
2013-11-7,52.5,49.5,44.0,52.2,49.2,43.5,100,99,98,30.18,30.01,20,6,25,0.48
2013-11-8,51.8,45.9,41.6,49.0,44.8,41.1,99,96,88,30.19,30.05,10,3,13,0.00
2013-11-9,52.8,46.5,40.9,47.4,43.9,39.8,98,91,70,30.06,29.96,6,2,9,0.01
2013-11-10,53.2,48.1,42.0,50.3,46.2,40.4,97,93,84,30.04,29.96,12,4,17,0.00
2013-11-11,60.5,51.9,44.1,54.2,46.5,40.9,99,83,50,30.04,29.95,14,4,23,0.01
2013-11-12,55.2,52.1,48.4,54.1,50.9,48.1,99,96,81,30.41,30.02,12,5,18,0.08
2013-11-13,52.4,48.6,44.0,51.3,48.0,43.2,100,98,95,30.41,30.25,14,6,18,0.00
2013-11-14,48.9,45.7,41.6,46.7,44.4,40.6,98,95,90,30.26,30.09,7,2,13,0.02
2013-11-15,48.6,45.2,40.7,46.1,43.9,40.4,99,95,90,30.10,29.78,11,4,18,0.09
2013-11-16,50.6,48.4,44.6,49.3,47.2,43.4,100,96,88,29.94,29.74,12,5,18,0.17
2013-11-17,53.6,48.4,44.9,48.7,45.6,41.6,96,90,80,30.05,29.94,9,4,18,0.02
2013-11-18,53.1,50.6,46.6,51.2,47.3,42.8,96,88,78,30.00,29.76,20,11,31,1.02
2013-11-19,52.4,49.1,43.5,52.0,47.9,36.6,99,96,78,29.95,29.77,20,10,33,0.77
2013-11-20,46.5,40.5,35.4,39.3,34.6,30.6,88,80,68,30.23,29.96,13,6,33,0.00
2013-11-21,48.1,38.5,31.0,36.2,27.7,24.1,83,66,41,30.41,30.23,16,6,19,0.00
2013-11-22,60.3,46.7,34.5,37.4,27.8,22.6,76,49,27,30.40,30.17,12,6,17,0.00
2013-11-23,69.4,55.1,45.0,42.8,29.4,21.9,58,38,21,30.17,29.96,14,6,21,0.00
2013-11-24,56.1,46.2,37.6,41.3,34.1,28.4,78,63,45,30.21,30.03,8,2,13,0.00
2013-11-25,52.1,43.8,35.9,43.8,36.2,28.5,90,75,52,30.29,30.21,7,2,9,0.00
2013-11-26,56.3,46.4,37.8,44.1,39.4,34.6,90,77,57,30.21,29.98,10,2,14,0.00
2013-11-27,58.6,47.0,39.3,44.9,39.9,35.2,94,77,51,29.98,29.85,5,2,7,0.00
2013-11-28,56.2,45.2,39.3,45.8,41.8,37.6,95,88,65,30.14,29.91,11,4,14,0.00
2013-11-29,48.2,43.5,36.2,46.8,42.1,35.1,97,95,90,30.32,30.14,13,5,16,0.01
2013-11-30,48.3,45.5,40.9,46.9,44.5,40.3,98,96,94,30.38,30.31,11,3,14,0.00
2013-12-1,50.7,49.4,47.1,50.1,49.2,45.5,100,99,94,30.36,30.16,15,9,22,0.05
2013-12-2,50.0,45.3,35.7,50.0,43.0,33.9,100,92,73,30.16,30.02,19,9,27,0.42
2013-12-3,43.5,36.6,32.5,41.1,35.0,30.4,98,94,86,30.17,30.07,10,3,15,0.15
2013-12-4,38.8,31.6,27.0,30.3,24.4,21.1,91,75,54,30.27,30.17,9,5,13,0.01
2013-12-5,39.0,31.5,24.9,28.9,24.8,21.5,90,77,59,30.23,30.08,7,3,13,0.00
2013-12-6,44.1,37.9,31.6,40.3,34.2,23.0,95,87,60,30.08,29.81,18,8,23,0.44
2013-12-7,32.2,28.0,22.9,29.0,22.4,18.7,90,80,59,30.33,29.99,10,6,16,0.00
2013-12-8,37.8,28.2,21.9,24.0,20.0,16.5,88,73,44,30.52,30.32,11,6,14,0.00
2013-12-9,42.4,32.4,25.6,30.1,22.6,15.9,79,67,52,30.52,30.45,9,6,14,0.00
2013-12-10,45.8,35.1,29.1,37.7,29.8,24.9,89,81,63,30.47,30.28,9,5,14,0.00
2013-12-11,50.4,39.7,32.8,43.8,35.2,29.6,93,84,61,30.29,30.15,6,2,10,0.00
2013-12-12,47.4,41.7,32.6,45.1,39.4,30.5,97,92,84,30.24,30.12,13,5,20,0.29
2013-12-13,48.8,44.4,39.3,48.3,43.8,38.8,99,98,95,30.39,30.23,4,1,7,0.02
2013-12-14,44.2,39.9,36.2,44.0,39.8,35.8,100,100,99,30.44,30.36,5,2,8,0.01
2013-12-15,49.8,41.5,36.1,47.9,40.9,36.1,100,98,91,30.44,30.38,7,3,9,0.01
2013-12-16,53.2,42.7,34.8,48.1,40.7,34.5,100,93,80,30.38,30.12,10,4,12,0.01
2013-12-17,44.7,40.7,34.6,43.4,39.3,33.4,97,95,90,30.20,30.12,13,4,17,0.00
2013-12-18,44.7,41.3,37.3,44.2,40.2,35.6,99,96,80,30.15,30.05,16,6,25,0.00
2013-12-19,41.0,36.8,32.2,36.0,32.6,29.9,91,85,72,30.26,30.13,14,5,17,0.01
2013-12-20,47.2,40.9,32.3,46.8,36.9,28.8,99,86,56,30.21,30.02,12,5,18,0.27
2013-12-21,47.2,45.5,42.7,47.2,45.4,42.7,100,100,99,30.27,30.07,7,3,12,0.06
2013-12-22,48.2,44.6,41.1,48.2,44.5,40.8,100,100,98,30.37,30.26,6,1,12,0.00
2013-12-23,48.6,45.0,41.1,48.6,45.0,41.1,100,100,99,30.49,30.34,7,1,9,0.04
2013-12-24,45.5,41.5,36.7,44.8,40.9,35.6,100,98,95,30.51,30.33,15,5,18,0.01
2013-12-25,46.2,40.2,33.9,43.8,38.8,33.1,98,95,88,30.37,30.26,12,5,17,0.01
2013-12-26,48.8,41.6,35.7,44.2,39.5,34.9,98,93,80,30.28,30.15,7,2,10,0.00
2013-12-27,49.5,42.4,38.6,46.1,41.0,37.3,99,95,85,30.33,30.13,10,2,13,0.01
2013-12-28,45.1,41.0,35.6,43.6,39.6,33.5,99,95,90,30.42,30.32,16,6,21,0.01
2013-12-29,48.7,40.9,34.5,43.1,36.5,32.4,93,85,72,30.36,30.15,10,5,13,0.00
2013-12-30,50.2,43.3,38.0,44.1,38.5,34.2,94,83,71,30.23,30.12,9,1,13,0.00
2013-12-31,46.7,42.1,38.6,44.9,41.1,37.8,98,96,92,30.30,30.21,6,2,8,0.00
2014-1-1,54.2,44.5,37.3,47.2,40.8,35.5,98,87,68,30.26,30.16,11,5,13,0.01
2014-1-2,50.4,44.3,40.0,46.2,41.7,37.6,96,90,81,30.18,30.10,6,1,8,0.00